Tracking 31027 objects as of 19-Jul-2025
HD Live streaming from Space Station
objects crossing your sky now

ARIANE 3 DEB

Track ARIANE 3 DEB now!


NORAD ID: 26807
Int'l Code: 1988-081H
Perigee: 1,033.3 km
Apogee: 36,571.9 km
Inclination: 6.2 °
Period: 662.5 minutes
Semi major axis: 25173 km
RCS: 0.4361 m2 (medium)
Launch date: September 8, 1988
Source: France (FR)
Launch site: FRENCH GUIANA (FRGUI)

Note: This is SATELLITE DEBRIS
Your satellite tracking list
STARLINK-5403
Track 1 satellite(s)




NASA's NSSDC Master Catalog

Two Line Element Set (TLE):
1 26807U 88081H   25198.05997850 -.00000135  00000-0  00000-0 0  9996
2 26807   6.2177  67.5832 7058695 203.9987 354.6910  2.17362622205317
Source of the keplerian elements: AFSPC